Location: Brookview Estates
(36.0476°N, 86.6931°W)
Time: 23:12:03
(UTC+00:00)

STARLINK-1024 - Pass Details

Date: 30 March 2020
Orbit: 549 x 550 km, 53.0° (Epoch: 24 May)

Event Time Altitude Azimuth Distance (km) Brightness Sun altitude
Exits shadow 10:13:37 20° 199° (SSW) 1,287 5.1 -17.0°
Maximum altitude 10:16:11 49° 132° (SE) 708 4.3 -16.5°
Drops below altitude 10° 10:20:11 10° 57° (ENE) 1,823 7.5 -15.7°
Sets 10:22:28 0° 52° (NE) 2,720 8.5 -15.2°
